Year,Month,Day,Hour,Minute,Value (Times are PST for temperature in C)
2011,07,04,00,00,11.60
2011,07,04,00,01,11.60
2011,07,04,00,02,11.60
2011,07,04,00,03,11.60
2011,07,04,00,04,11.60
2011,07,04,00,05,11.60
2011,07,04,00,06,11.50
2011,07,04,00,07,11.50
2011,07,04,00,08,11.50
2011,07,04,00,09,11.50
2011,07,04,00,10,11.50
2011,07,04,00,11,11.50
2011,07,04,00,12,11.50
2011,07,04,00,13,11.50
2011,07,04,00,14,11.50
2011,07,04,00,15,11.50
2011,07,04,00,16,11.40
2011,07,04,00,17,11.40
2011,07,04,00,18,11.40
2011,07,04,00,19,11.30
2011,07,04,00,20,11.30
2011,07,04,00,21,11.20
2011,07,04,00,22,11.20
2011,07,04,00,23,11.20
2011,07,04,00,24,11.20
2011,07,04,00,25,11.20
2011,07,04,00,26,11.20
2011,07,04,00,27,11.10
2011,07,04,00,28,11.10
2011,07,04,00,29,11.10
2011,07,04,00,30,11.10
2011,07,04,00,31,11.10
2011,07,04,00,32,11.10
2011,07,04,00,33,11.00
2011,07,04,00,34,11.00
2011,07,04,00,35,11.00
2011,07,04,00,36,10.90
2011,07,04,00,37,10.90
2011,07,04,00,38,10.90
2011,07,04,00,39,10.80
2011,07,04,00,40,10.80
2011,07,04,00,41,10.80
2011,07,04,00,42,10.80
2011,07,04,00,43,10.70
2011,07,04,00,44,10.70
2011,07,04,00,45,10.70
2011,07,04,00,46,10.70
2011,07,04,00,47,10.70
2011,07,04,00,48,10.70
2011,07,04,00,49,10.70
2011,07,04,00,50,10.70
2011,07,04,00,51,10.70
2011,07,04,00,52,10.70
2011,07,04,00,53,10.60
2011,07,04,00,54,10.60
2011,07,04,00,55,10.60
2011,07,04,00,56,10.60
2011,07,04,00,57,10.60
2011,07,04,00,58,10.60
2011,07,04,00,59,10.60
2011,07,04,01,00,10.60
2011,07,04,01,01,10.60
2011,07,04,01,02,10.70
2011,07,04,01,03,10.70
2011,07,04,01,04,10.70
2011,07,04,01,05,10.70
2011,07,04,01,06,10.70
2011,07,04,01,07,10.70
2011,07,04,01,08,10.60
2011,07,04,01,09,10.60
2011,07,04,01,10,10.60
2011,07,04,01,11,10.60
2011,07,04,01,12,10.60
2011,07,04,01,13,10.60
2011,07,04,01,14,10.60
2011,07,04,01,15,10.50
2011,07,04,01,16,10.60
2011,07,04,01,17,10.60
2011,07,04,01,18,10.60
2011,07,04,01,19,10.50
2011,07,04,01,20,10.50
2011,07,04,01,21,10.50
2011,07,04,01,22,10.50
2011,07,04,01,23,10.50
2011,07,04,01,24,10.50
2011,07,04,01,25,10.50
2011,07,04,01,26,10.50
2011,07,04,01,27,10.50
2011,07,04,01,28,10.50
2011,07,04,01,29,10.40
2011,07,04,01,30,10.40
2011,07,04,01,31,10.40
2011,07,04,01,32,10.40
2011,07,04,01,33,10.40
2011,07,04,01,34,10.40
2011,07,04,01,35,10.40
2011,07,04,01,36,10.40
2011,07,04,01,37,10.40
2011,07,04,01,38,10.40
2011,07,04,01,39,10.40
2011,07,04,01,40,10.40
2011,07,04,01,41,10.40
2011,07,04,01,42,10.40
2011,07,04,01,43,10.40
2011,07,04,01,44,10.40
2011,07,04,01,45,10.40
2011,07,04,01,46,10.40
2011,07,04,01,47,10.40
2011,07,04,01,48,10.40
2011,07,04,01,49,10.40
2011,07,04,01,50,10.40
2011,07,04,01,51,10.40
2011,07,04,01,52,10.40
2011,07,04,01,53,10.40
2011,07,04,01,54,10.40
2011,07,04,01,55,10.40
2011,07,04,01,56,10.40
2011,07,04,01,57,10.40
2011,07,04,01,58,10.40
2011,07,04,01,59,10.40
2011,07,04,02,00,10.30
2011,07,04,02,01,10.30
2011,07,04,02,02,10.30
2011,07,04,02,03,10.30
2011,07,04,02,04,10.30
2011,07,04,02,05,10.30
2011,07,04,02,06,10.30
2011,07,04,02,07,10.30
2011,07,04,02,08,10.30
2011,07,04,02,09,10.30
2011,07,04,02,10,10.30
2011,07,04,02,11,10.30
2011,07,04,02,12,10.20
2011,07,04,02,13,10.20
2011,07,04,02,14,10.20
2011,07,04,02,15,10.20
2011,07,04,02,16,10.20
2011,07,04,02,17,10.20
2011,07,04,02,18,10.20
2011,07,04,02,19,10.20
2011,07,04,02,20,10.20
2011,07,04,02,21,10.20
2011,07,04,02,22,10.20
2011,07,04,02,23,10.20
2011,07,04,02,24,10.20
2011,07,04,02,25,10.20
2011,07,04,02,26,10.20
2011,07,04,02,27,10.20
2011,07,04,02,28,10.30
2011,07,04,02,29,10.30
2011,07,04,02,30,10.30
2011,07,04,02,31,10.30
2011,07,04,02,32,10.30
2011,07,04,02,33,10.20
2011,07,04,02,34,10.20
2011,07,04,02,35,10.20
2011,07,04,02,36,10.20
2011,07,04,02,37,10.20
2011,07,04,02,38,10.20
2011,07,04,02,39,10.20
2011,07,04,02,40,10.20
2011,07,04,02,41,10.30
2011,07,04,02,42,10.30
2011,07,04,02,43,10.20
2011,07,04,02,44,10.20
2011,07,04,02,45,10.20
2011,07,04,02,46,10.20
2011,07,04,02,47,10.20
2011,07,04,02,48,10.30
2011,07,04,02,49,10.30
2011,07,04,02,50,10.30
2011,07,04,02,51,10.30
2011,07,04,02,52,10.30
2011,07,04,02,53,10.40
2011,07,04,02,54,10.40
2011,07,04,02,55,10.50
2011,07,04,02,56,10.50
2011,07,04,02,57,10.50
2011,07,04,02,58,10.50
2011,07,04,02,59,10.40
2011,07,04,03,00,10.40
2011,07,04,03,01,10.40
2011,07,04,03,02,10.40
2011,07,04,03,03,10.50
2011,07,04,03,04,10.50
2011,07,04,03,05,10.50
2011,07,04,03,06,10.50
2011,07,04,03,07,10.60
2011,07,04,03,08,10.60
2011,07,04,03,09,10.60
2011,07,04,03,10,10.60
2011,07,04,03,11,10.60
2011,07,04,03,12,10.60
2011,07,04,03,13,10.60
2011,07,04,03,14,10.60
2011,07,04,03,15,10.60
2011,07,04,03,16,10.60
2011,07,04,03,17,10.60
2011,07,04,03,18,10.60
2011,07,04,03,19,10.50
2011,07,04,03,20,10.50
2011,07,04,03,21,10.50
2011,07,04,03,22,10.50
2011,07,04,03,23,10.40
2011,07,04,03,24,10.40
2011,07,04,03,25,10.40
2011,07,04,03,26,10.40
2011,07,04,03,27,10.40
2011,07,04,03,28,10.40
2011,07,04,03,29,10.40
2011,07,04,03,30,10.50
2011,07,04,03,31,10.50
2011,07,04,03,32,10.40
2011,07,04,03,33,10.40
2011,07,04,03,34,10.40
2011,07,04,03,35,10.40
2011,07,04,03,36,10.40
2011,07,04,03,37,10.30
2011,07,04,03,38,10.30
2011,07,04,03,39,10.30
2011,07,04,03,40,10.30
2011,07,04,03,41,10.30
2011,07,04,03,42,10.30
2011,07,04,03,43,10.30
2011,07,04,03,44,10.30
2011,07,04,03,45,10.30
2011,07,04,03,46,10.30
2011,07,04,03,47,10.30
2011,07,04,03,48,10.30
2011,07,04,03,49,10.30
2011,07,04,03,50,10.30
2011,07,04,03,51,10.30
2011,07,04,03,52,10.30
2011,07,04,03,53,10.20
2011,07,04,03,54,10.20
2011,07,04,03,55,10.20
2011,07,04,03,56,10.20
2011,07,04,03,57,10.20
2011,07,04,03,58,10.20
2011,07,04,03,59,10.20
2011,07,04,04,00,10.20
2011,07,04,04,01,10.20
2011,07,04,04,02,10.30
2011,07,04,04,03,10.30
2011,07,04,04,04,10.20
2011,07,04,04,05,10.20
2011,07,04,04,06,10.20
2011,07,04,04,07,10.20
2011,07,04,04,08,10.20
2011,07,04,04,09,10.20
2011,07,04,04,10,10.20
2011,07,04,04,11,10.20
2011,07,04,04,12,10.20
2011,07,04,04,13,10.20
2011,07,04,04,14,10.20
2011,07,04,04,15,10.20
2011,07,04,04,16,10.20
2011,07,04,04,17,10.20
2011,07,04,04,18,10.20
2011,07,04,04,19,10.20
2011,07,04,04,20,10.20
2011,07,04,04,21,10.10
2011,07,04,04,22,10.10
2011,07,04,04,23,10.10
2011,07,04,04,24,10.10
2011,07,04,04,25,10.10
2011,07,04,04,26,10.10
2011,07,04,04,27,10.00
2011,07,04,04,28,10.00
2011,07,04,04,29,10.00
2011,07,04,04,30,10.00
2011,07,04,04,31,9.90
2011,07,04,04,32,9.90
2011,07,04,04,33,9.90
2011,07,04,04,34,9.90
2011,07,04,04,35,9.80
2011,07,04,04,36,9.80
2011,07,04,04,37,9.80
2011,07,04,04,38,9.80
2011,07,04,04,39,9.80
2011,07,04,04,40,9.80
2011,07,04,04,41,9.80
2011,07,04,04,42,9.80
2011,07,04,04,43,9.80
2011,07,04,04,44,9.80
2011,07,04,04,45,9.80
2011,07,04,04,46,9.80
2011,07,04,04,47,9.80
2011,07,04,04,48,9.80
2011,07,04,04,49,9.70
2011,07,04,04,50,9.70
2011,07,04,04,51,9.70
2011,07,04,04,52,9.70
2011,07,04,04,53,9.70
2011,07,04,04,54,9.70
2011,07,04,04,55,9.80
2011,07,04,04,56,9.80
2011,07,04,04,57,9.80
2011,07,04,04,58,9.80
2011,07,04,04,59,9.80
2011,07,04,05,00,9.80
2011,07,04,05,01,9.80
2011,07,04,05,02,9.80
2011,07,04,05,03,9.80
2011,07,04,05,04,9.80
2011,07,04,05,05,9.80
2011,07,04,05,06,9.80
2011,07,04,05,07,9.80
2011,07,04,05,08,9.80
2011,07,04,05,09,9.80
2011,07,04,05,10,9.80
2011,07,04,05,11,9.80
2011,07,04,05,12,9.80
2011,07,04,05,13,9.80
2011,07,04,05,14,9.80
2011,07,04,05,15,9.80
2011,07,04,05,16,9.80
2011,07,04,05,17,9.80
2011,07,04,05,18,9.80
2011,07,04,05,19,9.80
2011,07,04,05,20,9.80
2011,07,04,05,21,9.80
2011,07,04,05,22,9.80
2011,07,04,05,23,9.80
2011,07,04,05,24,9.80
2011,07,04,05,25,9.80
2011,07,04,05,26,9.80
2011,07,04,05,27,9.80
2011,07,04,05,28,9.80
2011,07,04,05,29,9.80
2011,07,04,05,30,9.80
2011,07,04,05,31,9.80
2011,07,04,05,32,9.80
2011,07,04,05,33,9.80
2011,07,04,05,34,9.80
2011,07,04,05,35,9.70
2011,07,04,05,36,9.70
2011,07,04,05,37,9.70
2011,07,04,05,38,9.70
2011,07,04,05,39,9.70
2011,07,04,05,40,9.70
2011,07,04,05,41,9.70
2011,07,04,05,42,9.70
2011,07,04,05,43,9.70
2011,07,04,05,44,9.70
2011,07,04,05,45,9.70
2011,07,04,05,46,9.70
2011,07,04,05,47,9.70
2011,07,04,05,48,9.70
2011,07,04,05,49,9.70
2011,07,04,05,50,9.70
2011,07,04,05,51,9.70
2011,07,04,05,52,9.70
2011,07,04,05,53,9.70
2011,07,04,05,54,9.70
2011,07,04,05,55,9.70
2011,07,04,05,56,9.70
2011,07,04,05,57,9.70
2011,07,04,05,58,9.70
2011,07,04,05,59,9.70
2011,07,04,06,00,9.70
2011,07,04,06,01,9.70
2011,07,04,06,02,9.70
2011,07,04,06,03,9.70
2011,07,04,06,04,9.70
2011,07,04,06,05,9.70
2011,07,04,06,06,9.70
2011,07,04,06,07,9.70
2011,07,04,06,08,9.70
2011,07,04,06,09,9.70
2011,07,04,06,10,9.70
2011,07,04,06,11,9.80
2011,07,04,06,12,9.80
2011,07,04,06,13,9.80
2011,07,04,06,14,9.80
2011,07,04,06,15,9.80
2011,07,04,06,16,9.90
2011,07,04,06,17,9.90
2011,07,04,06,18,9.90
2011,07,04,06,19,10.00
2011,07,04,06,20,10.00
2011,07,04,06,21,10.10
2011,07,04,06,22,10.10
2011,07,04,06,23,10.10
2011,07,04,06,24,10.20
2011,07,04,06,25,10.20
2011,07,04,06,26,10.30
2011,07,04,06,27,10.30
2011,07,04,06,28,10.40
2011,07,04,06,29,10.40
2011,07,04,06,30,10.50
2011,07,04,06,31,10.50
2011,07,04,06,32,10.60
2011,07,04,06,33,10.60
2011,07,04,06,34,10.70
2011,07,04,06,35,10.70
2011,07,04,06,36,10.80
2011,07,04,06,37,10.90
2011,07,04,06,38,11.00
2011,07,04,06,39,11.10
2011,07,04,06,40,11.20
2011,07,04,06,41,11.30
2011,07,04,06,42,11.40
2011,07,04,06,43,11.50
2011,07,04,06,44,11.60
2011,07,04,06,45,11.70
2011,07,04,06,46,11.70
2011,07,04,06,47,11.80
2011,07,04,06,48,11.80
2011,07,04,06,49,11.90
2011,07,04,06,50,11.90
2011,07,04,06,51,12.00
2011,07,04,06,52,12.00
2011,07,04,06,53,12.10
2011,07,04,06,54,12.10
2011,07,04,06,55,12.20
2011,07,04,06,56,12.20
2011,07,04,06,57,12.30
2011,07,04,06,58,12.30
2011,07,04,06,59,12.40
2011,07,04,07,00,12.40
2011,07,04,07,01,12.40
2011,07,04,07,02,12.50
2011,07,04,07,03,12.50
2011,07,04,07,04,12.50
2011,07,04,07,05,12.60
2011,07,04,07,06,12.60
2011,07,04,07,07,12.60
2011,07,04,07,08,12.60
2011,07,04,07,09,12.70
2011,07,04,07,10,12.70
2011,07,04,07,11,12.70
2011,07,04,07,12,12.70
2011,07,04,07,13,12.80
2011,07,04,07,14,12.80
2011,07,04,07,15,12.80
2011,07,04,07,16,12.80
2011,07,04,07,17,12.80
2011,07,04,07,18,12.90
2011,07,04,07,19,12.90
2011,07,04,07,20,13.00
2011,07,04,07,21,13.00
2011,07,04,07,22,13.10
2011,07,04,07,23,13.10
2011,07,04,07,24,13.20
2011,07,04,07,25,13.20
2011,07,04,07,26,13.30
2011,07,04,07,27,13.30
2011,07,04,07,28,13.40
2011,07,04,07,29,13.50
2011,07,04,07,30,13.50
2011,07,04,07,31,13.60
2011,07,04,07,32,13.60
2011,07,04,07,33,13.70
2011,07,04,07,34,13.70
2011,07,04,07,35,13.70
2011,07,04,07,36,13.80
2011,07,04,07,37,13.80
2011,07,04,07,38,13.80
2011,07,04,07,39,13.80
2011,07,04,07,40,13.80
2011,07,04,07,41,13.80
2011,07,04,07,42,13.80
2011,07,04,07,43,13.80
2011,07,04,07,44,13.80
2011,07,04,07,45,13.80
2011,07,04,07,46,13.80
2011,07,04,07,47,13.90
2011,07,04,07,48,13.90
2011,07,04,07,49,14.00
2011,07,04,07,50,14.00
2011,07,04,07,51,14.10
2011,07,04,07,52,14.10
2011,07,04,07,53,14.20
2011,07,04,07,54,14.20
2011,07,04,07,55,14.20
2011,07,04,07,56,14.30
2011,07,04,07,57,14.30
2011,07,04,07,58,14.40
2011,07,04,07,59,14.50
2011,07,04,08,00,14.50
2011,07,04,08,01,14.60
2011,07,04,08,02,14.70
2011,07,04,08,03,14.80
2011,07,04,08,04,14.90
2011,07,04,08,05,15.00
2011,07,04,08,06,15.00
2011,07,04,08,07,15.00
2011,07,04,08,08,15.20
2011,07,04,08,09,15.30
2011,07,04,08,10,15.40
2011,07,04,08,11,15.40
2011,07,04,08,12,15.50
2011,07,04,08,13,15.50
2011,07,04,08,14,15.60
2011,07,04,08,15,15.60
2011,07,04,08,16,15.70
2011,07,04,08,17,15.70
2011,07,04,08,18,15.80
2011,07,04,08,19,15.80
2011,07,04,08,20,15.90
2011,07,04,08,21,15.90
2011,07,04,08,22,16.00
2011,07,04,08,23,16.00
2011,07,04,08,24,16.10
2011,07,04,08,25,16.20
2011,07,04,08,26,16.20
2011,07,04,08,27,16.30
2011,07,04,08,28,16.30
2011,07,04,08,29,16.30
2011,07,04,08,30,16.30
2011,07,04,08,31,16.30
2011,07,04,08,32,16.30
2011,07,04,08,33,16.30
2011,07,04,08,34,16.30
2011,07,04,08,35,16.30
2011,07,04,08,36,16.40
2011,07,04,08,37,16.40
2011,07,04,08,38,16.30
2011,07,04,08,39,16.30
2011,07,04,08,40,16.20
2011,07,04,08,41,16.20
2011,07,04,08,42,16.20
2011,07,04,08,43,16.20
2011,07,04,08,44,16.20
2011,07,04,08,45,16.10
2011,07,04,08,46,16.10
2011,07,04,08,47,16.10
2011,07,04,08,48,16.10
2011,07,04,08,49,16.10
2011,07,04,08,50,16.00
2011,07,04,08,51,16.10
2011,07,04,08,52,16.10
2011,07,04,08,53,16.20
2011,07,04,08,54,16.20
2011,07,04,08,55,16.30
2011,07,04,08,56,16.40
2011,07,04,08,57,16.50
2011,07,04,08,58,16.50
2011,07,04,08,59,16.60
2011,07,04,09,00,16.60
2011,07,04,09,01,16.70
2011,07,04,09,02,16.70
2011,07,04,09,03,16.70
2011,07,04,09,04,16.70
2011,07,04,09,05,16.70
2011,07,04,09,06,16.70
2011,07,04,09,07,16.70
2011,07,04,09,08,16.70
2011,07,04,09,09,16.70
2011,07,04,09,10,16.70
2011,07,04,09,11,16.70
2011,07,04,09,12,16.70
2011,07,04,09,13,16.60
2011,07,04,09,14,16.60
2011,07,04,09,15,16.60
2011,07,04,09,16,16.60
2011,07,04,09,17,16.60
2011,07,04,09,18,16.60
2011,07,04,09,19,16.60
2011,07,04,09,20,16.60
2011,07,04,09,21,16.70
2011,07,04,09,22,16.70
2011,07,04,09,23,16.70
2011,07,04,09,24,16.70
2011,07,04,09,25,16.70
2011,07,04,09,26,16.70
2011,07,04,09,27,16.70
2011,07,04,09,28,16.80
2011,07,04,09,29,16.90
2011,07,04,09,30,17.00
2011,07,04,09,31,17.00
2011,07,04,09,32,16.90
2011,07,04,09,33,16.90
2011,07,04,09,34,16.80
2011,07,04,09,35,16.90
2011,07,04,09,36,16.90
2011,07,04,09,37,16.90
2011,07,04,09,38,16.90
2011,07,04,09,39,17.00
2011,07,04,09,40,17.00
2011,07,04,09,41,17.00
2011,07,04,09,42,17.00
2011,07,04,09,43,17.00
2011,07,04,09,44,16.90
2011,07,04,09,45,16.80
2011,07,04,09,46,16.80
2011,07,04,09,47,16.70
2011,07,04,09,48,16.70
2011,07,04,09,49,16.70
2011,07,04,09,50,16.80
2011,07,04,09,51,16.80
2011,07,04,09,52,16.90
2011,07,04,09,53,17.00
2011,07,04,09,54,17.10
2011,07,04,09,55,17.20
2011,07,04,09,56,17.20
2011,07,04,09,57,17.20
2011,07,04,09,58,17.10
2011,07,04,09,59,17.00
2011,07,04,10,00,16.90
2011,07,04,10,01,16.80
2011,07,04,10,02,16.70
2011,07,04,10,03,16.60
2011,07,04,10,04,16.50
2011,07,04,10,05,16.50
2011,07,04,10,06,16.40
2011,07,04,10,07,16.40
2011,07,04,10,08,16.40
2011,07,04,10,09,16.40
2011,07,04,10,10,16.40
2011,07,04,10,11,16.40
2011,07,04,10,12,16.40
2011,07,04,10,13,16.50
2011,07,04,10,14,16.60
2011,07,04,10,15,16.60
2011,07,04,10,16,16.60
2011,07,04,10,17,16.60
2011,07,04,10,18,16.70
2011,07,04,10,19,16.80
2011,07,04,10,20,16.80
2011,07,04,10,21,16.90
2011,07,04,10,22,16.90
2011,07,04,10,23,16.90
2011,07,04,10,24,16.90
2011,07,04,10,25,17.00
2011,07,04,10,26,17.00
2011,07,04,10,27,17.00
2011,07,04,10,28,17.00
2011,07,04,10,29,17.00
2011,07,04,10,30,17.00
2011,07,04,10,31,17.00
2011,07,04,10,32,17.00
2011,07,04,10,33,17.00
2011,07,04,10,34,17.00
2011,07,04,10,35,17.00
2011,07,04,10,36,17.00
2011,07,04,10,37,16.90
2011,07,04,10,38,16.90
2011,07,04,10,39,17.00
2011,07,04,10,40,17.00
2011,07,04,10,41,17.00
2011,07,04,10,42,17.10
2011,07,04,10,43,17.00
2011,07,04,10,44,17.10
2011,07,04,10,45,17.20
2011,07,04,10,46,17.20
2011,07,04,10,47,17.20
2011,07,04,10,48,17.20
2011,07,04,10,49,17.20
2011,07,04,10,50,17.30
2011,07,04,10,51,17.40
2011,07,04,10,52,17.50
2011,07,04,10,53,17.60
2011,07,04,10,54,17.70
2011,07,04,10,55,17.70
2011,07,04,10,56,17.60
2011,07,04,10,57,17.50
2011,07,04,10,58,17.40
2011,07,04,10,59,17.30
2011,07,04,11,00,17.30
2011,07,04,11,01,17.20
2011,07,04,11,02,17.20
2011,07,04,11,03,17.20
2011,07,04,11,04,17.20
2011,07,04,11,05,17.20
2011,07,04,11,06,17.10
2011,07,04,11,07,17.10
2011,07,04,11,08,17.20
2011,07,04,11,09,17.30
2011,07,04,11,10,17.40
2011,07,04,11,11,17.40
2011,07,04,11,12,17.40
2011,07,04,11,13,17.40
2011,07,04,11,14,17.40
2011,07,04,11,15,17.50
2011,07,04,11,16,17.50
2011,07,04,11,17,17.60
2011,07,04,11,18,17.70
2011,07,04,11,19,17.80
2011,07,04,11,20,17.80
2011,07,04,11,21,17.80
2011,07,04,11,22,17.90
2011,07,04,11,23,17.80
2011,07,04,11,24,17.80
2011,07,04,11,25,17.80
2011,07,04,11,26,17.80
2011,07,04,11,27,17.90
2011,07,04,11,28,18.00
2011,07,04,11,29,18.10
2011,07,04,11,30,18.10
2011,07,04,11,31,18.10
2011,07,04,11,32,18.10
2011,07,04,11,33,18.10
2011,07,04,11,34,18.10
2011,07,04,11,35,18.10
2011,07,04,11,36,18.10
2011,07,04,11,37,18.00
2011,07,04,11,38,17.90
2011,07,04,11,39,17.80
2011,07,04,11,40,17.80
2011,07,04,11,41,17.90
2011,07,04,11,42,17.90
2011,07,04,11,43,18.00
2011,07,04,11,44,18.00
2011,07,04,11,45,18.00
2011,07,04,11,46,18.00
2011,07,04,11,47,17.90
2011,07,04,11,48,17.80
2011,07,04,11,49,17.80
2011,07,04,11,50,17.70
2011,07,04,11,51,17.70
2011,07,04,11,52,17.70
2011,07,04,11,53,17.80
2011,07,04,11,54,17.80
2011,07,04,11,55,17.80
2011,07,04,11,56,17.90
2011,07,04,11,57,18.00
2011,07,04,11,58,18.00
2011,07,04,11,59,18.00
2011,07,04,12,00,17.90
2011,07,04,12,01,17.90
2011,07,04,12,02,17.90
2011,07,04,12,03,18.00
2011,07,04,12,04,18.00
2011,07,04,12,05,18.00
2011,07,04,12,06,18.00
2011,07,04,12,07,18.10
2011,07,04,12,08,18.10
2011,07,04,12,09,18.10
2011,07,04,12,10,18.10
2011,07,04,12,11,18.10
2011,07,04,12,12,18.10
2011,07,04,12,13,18.10
2011,07,04,12,14,18.20
2011,07,04,12,15,18.40
2011,07,04,12,16,18.50
2011,07,04,12,17,18.70
2011,07,04,12,18,18.90
2011,07,04,12,19,18.90
2011,07,04,12,20,18.90
2011,07,04,12,21,18.90
2011,07,04,12,22,18.90
2011,07,04,12,23,19.00
2011,07,04,12,24,19.10
2011,07,04,12,25,19.20
2011,07,04,12,26,19.20
2011,07,04,12,27,19.20
2011,07,04,12,28,19.30
2011,07,04,12,29,19.30
2011,07,04,12,30,19.30
2011,07,04,12,31,19.20
2011,07,04,12,32,19.20
2011,07,04,12,33,19.30
2011,07,04,12,34,19.40
2011,07,04,12,35,19.40
2011,07,04,12,36,19.40
2011,07,04,12,37,19.40
2011,07,04,12,38,19.30
2011,07,04,12,39,19.30
2011,07,04,12,40,19.30
2011,07,04,12,41,19.20
2011,07,04,12,42,19.20
2011,07,04,12,43,19.10
2011,07,04,12,44,19.10
2011,07,04,12,45,19.00
2011,07,04,12,46,19.00
2011,07,04,12,47,19.10
2011,07,04,12,48,19.30
2011,07,04,12,49,19.40
2011,07,04,12,50,19.60
2011,07,04,12,51,19.60
2011,07,04,12,52,19.80
2011,07,04,12,53,19.90
2011,07,04,12,54,19.90
2011,07,04,12,55,20.00
2011,07,04,12,56,20.00
2011,07,04,12,57,19.90
2011,07,04,12,58,19.90
2011,07,04,12,59,19.80
2011,07,04,13,00,19.60
2011,07,04,13,01,19.50
2011,07,04,13,02,19.50
2011,07,04,13,03,19.50
2011,07,04,13,04,19.50
2011,07,04,13,05,19.60
2011,07,04,13,06,19.70
2011,07,04,13,07,19.80
2011,07,04,13,08,19.90
2011,07,04,13,09,20.00
2011,07,04,13,10,20.10
2011,07,04,13,11,19.90
2011,07,04,13,12,19.80
2011,07,04,13,13,19.70
2011,07,04,13,14,19.60
2011,07,04,13,15,19.50
2011,07,04,13,16,19.40
2011,07,04,13,17,19.30
2011,07,04,13,18,19.20
2011,07,04,13,19,19.20
2011,07,04,13,20,19.20
2011,07,04,13,21,19.10
2011,07,04,13,22,19.10
2011,07,04,13,23,19.20
2011,07,04,13,24,19.30
2011,07,04,13,25,19.30
2011,07,04,13,26,19.50
2011,07,04,13,27,19.60
2011,07,04,13,28,19.60
2011,07,04,13,29,19.50
2011,07,04,13,30,19.40
2011,07,04,13,31,19.30
2011,07,04,13,32,19.30
2011,07,04,13,33,19.30
2011,07,04,13,34,19.20
2011,07,04,13,35,19.20
2011,07,04,13,36,19.10
2011,07,04,13,37,19.10
2011,07,04,13,38,19.10
2011,07,04,13,39,19.20
2011,07,04,13,40,19.20
2011,07,04,13,41,19.30
2011,07,04,13,42,19.40
2011,07,04,13,43,19.50
2011,07,04,13,44,19.50
2011,07,04,13,45,19.60
2011,07,04,13,46,19.70
2011,07,04,13,47,19.70
2011,07,04,13,48,19.80
2011,07,04,13,49,19.80
2011,07,04,13,50,19.90
2011,07,04,13,51,19.90
2011,07,04,13,52,19.90
2011,07,04,13,53,19.90
2011,07,04,13,54,19.90
2011,07,04,13,55,19.90
2011,07,04,13,56,19.90
2011,07,04,13,57,19.80
2011,07,04,13,58,19.80
2011,07,04,13,59,19.90
2011,07,04,14,00,20.00
2011,07,04,14,01,20.10
2011,07,04,14,02,20.00
2011,07,04,14,03,20.00
2011,07,04,14,04,20.00
2011,07,04,14,05,20.00
2011,07,04,14,06,20.10
2011,07,04,14,07,20.10
2011,07,04,14,08,20.10
2011,07,04,14,09,20.10
2011,07,04,14,10,20.10
2011,07,04,14,11,20.00
2011,07,04,14,12,20.00
2011,07,04,14,13,20.00
2011,07,04,14,14,20.10
2011,07,04,14,15,20.10
2011,07,04,14,16,20.20
2011,07,04,14,17,20.40
2011,07,04,14,18,20.60
2011,07,04,14,19,20.80
2011,07,04,14,20,20.90
2011,07,04,14,21,20.90
2011,07,04,14,22,20.90
2011,07,04,14,23,20.80
2011,07,04,14,24,20.60
2011,07,04,14,25,20.50
2011,07,04,14,26,20.50
2011,07,04,14,27,20.40
2011,07,04,14,28,20.40
2011,07,04,14,29,20.40
2011,07,04,14,30,20.40
2011,07,04,14,31,20.40
2011,07,04,14,32,20.30
2011,07,04,14,33,20.30
2011,07,04,14,34,20.30
2011,07,04,14,35,20.40
2011,07,04,14,36,20.40
2011,07,04,14,37,20.40
2011,07,04,14,38,20.40
2011,07,04,14,39,20.50
2011,07,04,14,40,20.50
2011,07,04,14,41,20.60
2011,07,04,14,42,20.80
2011,07,04,14,43,20.90
2011,07,04,14,44,21.00
2011,07,04,14,45,21.00
2011,07,04,14,46,20.90
2011,07,04,14,47,20.90
2011,07,04,14,48,20.90
2011,07,04,14,49,20.90
2011,07,04,14,50,20.90
2011,07,04,14,51,20.90
2011,07,04,14,52,21.00
2011,07,04,14,53,21.10
2011,07,04,14,54,21.10
2011,07,04,14,55,21.10
2011,07,04,14,56,21.20
2011,07,04,14,57,21.30
2011,07,04,14,58,21.30
2011,07,04,14,59,21.30
2011,07,04,15,00,21.20
2011,07,04,15,01,21.10
2011,07,04,15,02,21.10
2011,07,04,15,03,21.10
2011,07,04,15,04,21.10
2011,07,04,15,05,21.20
2011,07,04,15,06,21.30
2011,07,04,15,07,21.20
2011,07,04,15,08,21.20
2011,07,04,15,09,21.10
2011,07,04,15,10,21.20
2011,07,04,15,11,21.30
2011,07,04,15,12,21.30
2011,07,04,15,13,21.40
2011,07,04,15,14,21.40
2011,07,04,15,15,21.40
2011,07,04,15,16,21.40
2011,07,04,15,17,21.40
2011,07,04,15,18,21.40
2011,07,04,15,19,21.40
2011,07,04,15,20,21.40
2011,07,04,15,21,21.40
2011,07,04,15,22,21.50
2011,07,04,15,23,21.50
2011,07,04,15,24,21.50
2011,07,04,15,25,21.60
2011,07,04,15,26,21.70
2011,07,04,15,42,21.70
2011,07,04,15,43,21.70
2011,07,04,15,44,21.70
2011,07,04,15,45,21.70
2011,07,04,15,46,21.70
2011,07,04,15,47,21.80
2011,07,04,15,48,21.90
2011,07,04,15,49,21.90
2011,07,04,15,50,22.00
2011,07,04,15,51,22.00
2011,07,04,15,52,22.00
2011,07,04,15,53,22.00
2011,07,04,15,54,21.90
2011,07,04,15,55,21.90
2011,07,04,15,56,22.00
2011,07,04,15,57,22.00
2011,07,04,15,58,22.00
2011,07,04,16,00,21.90
2011,07,04,16,01,21.80
2011,07,04,16,02,21.80
2011,07,04,16,03,21.80
2011,07,04,16,04,21.80
2011,07,04,16,05,21.80
2011,07,04,16,06,21.90
2011,07,04,16,07,21.90
2011,07,04,16,08,21.90
2011,07,04,16,09,21.80
2011,07,04,16,10,21.70
2011,07,04,16,11,21.70
2011,07,04,16,12,21.70
2011,07,04,16,13,21.70
2011,07,04,16,14,21.80
2011,07,04,16,15,21.80
2011,07,04,16,16,21.90
2011,07,04,16,17,21.90
2011,07,04,16,18,22.00
2011,07,04,16,19,22.00
2011,07,04,16,20,22.00
2011,07,04,16,21,22.10
2011,07,04,16,22,22.10
2011,07,04,16,23,22.10
2011,07,04,16,24,22.10
2011,07,04,16,25,22.10
2011,07,04,16,26,22.10
2011,07,04,16,27,22.10
2011,07,04,16,28,22.00
2011,07,04,16,29,22.00
2011,07,04,16,30,22.00
2011,07,04,16,31,22.00
2011,07,04,16,32,22.00
2011,07,04,16,33,22.00
2011,07,04,16,34,22.00
2011,07,04,16,35,22.00
2011,07,04,16,36,22.00
2011,07,04,16,37,22.10
2011,07,04,16,38,22.20
2011,07,04,16,39,22.20
2011,07,04,16,40,22.20
2011,07,04,16,41,22.20
2011,07,04,16,42,22.10
2011,07,04,16,43,22.00
2011,07,04,16,44,21.80
2011,07,04,16,45,21.80
2011,07,04,16,46,21.70
2011,07,04,16,47,21.60
2011,07,04,16,48,21.60
2011,07,04,16,49,21.60
2011,07,04,16,50,21.70
2011,07,04,16,51,21.60
2011,07,04,16,52,21.50
2011,07,04,16,53,21.50
2011,07,04,16,54,21.50
2011,07,04,16,55,21.60
2011,07,04,16,56,21.70
2011,07,04,16,57,21.80
2011,07,04,16,58,21.80
2011,07,04,16,59,21.80
2011,07,04,17,00,21.80
2011,07,04,17,01,21.80
2011,07,04,17,02,21.90
2011,07,04,17,03,21.90
2011,07,04,17,04,22.00
2011,07,04,17,05,22.00
2011,07,04,17,06,22.10
2011,07,04,17,07,22.20
2011,07,04,17,08,22.30
2011,07,04,17,09,22.40
2011,07,04,17,10,22.50
2011,07,04,17,11,22.50
2011,07,04,17,12,22.50
2011,07,04,17,13,22.60
2011,07,04,17,14,22.60
2011,07,04,17,15,22.60
2011,07,04,17,16,22.70
2011,07,04,17,17,22.60
2011,07,04,17,18,22.40
2011,07,04,17,19,22.30
2011,07,04,17,20,22.30
2011,07,04,17,21,22.30
2011,07,04,17,22,22.30
2011,07,04,17,23,22.20
2011,07,04,17,24,22.20
2011,07,04,17,25,22.20
2011,07,04,17,26,22.20
2011,07,04,17,27,22.10
2011,07,04,17,28,22.10
2011,07,04,17,29,22.00
2011,07,04,17,30,22.00
2011,07,04,17,31,22.10
2011,07,04,17,32,22.20
2011,07,04,17,33,22.30
2011,07,04,17,34,22.30
2011,07,04,17,35,22.40
2011,07,04,17,36,22.40
2011,07,04,17,37,22.50
2011,07,04,17,38,22.60
2011,07,04,17,39,22.60
2011,07,04,17,40,22.70